TimeEST,TemperatureF,Dew PointF,Humidity,Sea Level PressureIn,VisibilityMPH,Wind Direction,Wind SpeedMPH,Gust SpeedMPH,PrecipitationIn,Events,Conditions,WindDirDegrees,DateUTC
12:54 AM,33.1,26.1,75,30.48,9.0,Calm,Calm,-,N/A,,Partly Cloudy,0,2013-01-28 05:54:00
1:54 AM,34.0,26.1,73,30.46,9.0,Calm,Calm,-,N/A,,Overcast,0,2013-01-28 06:54:00
2:54 AM,34.0,27.0,75,30.47,7.0,Calm,Calm,-,0.00,,Overcast,0,2013-01-28 07:54:00
3:54 AM,34.0,27.0,75,30.45,7.0,South,3.5,-,0.00,,Overcast,180,2013-01-28 08:54:00
4:54 AM,34.0,28.9,82,30.45,5.0,South,4.6,-,0.01,Rain,Light Rain,190,2013-01-28 09:54:00
5:54 AM,33.1,30.9,92,30.43,5.0,South,3.5,-,0.02,,Overcast,180,2013-01-28 10:54:00
6:54 AM,34.0,30.9,89,30.45,4.0,Calm,Calm,-,0.00,,Overcast,0,2013-01-28 11:54:00
7:54 AM,34.0,30.9,89,30.45,4.0,South,3.5,-,N/A,,Overcast,190,2013-01-28 12:54:00
8:54 AM,35.1,32.0,89,30.45,3.0,SSW,3.5,-,N/A,,Overcast,210,2013-01-28 13:54:00
9:54 AM,37.9,33.1,83,30.44,5.0,SSW,5.8,-,N/A,,Haze,210,2013-01-28 14:54:00
10:14 AM,39.2,33.8,81,30.41,5.0,SW,5.8,-,N/A,,Haze,230,2013-01-28 15:14:00
10:54 AM,43.0,34.0,71,30.42,7.0,SSW,8.1,-,N/A,,Partly Cloudy,200,2013-01-28 15:54:00
11:40 AM,46.4,33.8,62,30.39,10.0,South,6.9,-,N/A,,Mostly Cloudy,190,2013-01-28 16:40:00
11:54 AM,48.0,33.1,56,30.39,10.0,SSW,6.9,-,N/A,,Overcast,200,2013-01-28 16:54:00
12:54 PM,48.9,33.1,54,30.33,10.0,SSW,9.2,-,N/A,,Overcast,210,2013-01-28 17:54:00
1:54 PM,48.9,34.0,56,30.31,10.0,SW,11.5,-,N/A,,Overcast,220,2013-01-28 18:54:00
2:54 PM,50.0,37.0,61,30.27,10.0,SW,12.7,-,N/A,,Overcast,220,2013-01-28 19:54:00
3:54 PM,50.0,37.9,63,30.27,10.0,SSW,12.7,19.6,N/A,,Overcast,210,2013-01-28 20:54:00
4:54 PM,50.0,39.0,66,30.26,10.0,SSW,6.9,-,N/A,,Overcast,210,2013-01-28 21:54:00
5:54 PM,48.9,39.0,69,30.27,10.0,SSW,3.5,-,N/A,,Overcast,210,2013-01-28 22:54:00
6:32 PM,48.2,39.2,71,30.26,10.0,SSW,6.9,-,N/A,,Overcast,200,2013-01-28 23:32:00
6:54 PM,48.9,41.0,74,30.27,10.0,SSW,4.6,-,N/A,,Overcast,200,2013-01-28 23:54:00
7:54 PM,48.9,43.0,80,30.26,9.0,SSW,4.6,-,N/A,,Overcast,210,2013-01-29 00:54:00
8:54 PM,50.0,44.1,80,30.25,8.0,SSW,9.2,-,N/A,,Overcast,210,2013-01-29 01:54:00
9:54 PM,50.0,45.0,83,30.23,7.0,SSW,9.2,-,N/A,,Overcast,210,2013-01-29 02:54:00
10:54 PM,48.9,45.0,86,30.23,7.0,SW,10.4,-,N/A,,Mostly Cloudy,220,2013-01-29 03:54:00
11:54 PM,48.9,46.0,90,30.23,7.0,SW,9.2,-,N/A,,Overcast,220,2013-01-29 04:54:00